#timestamp,LO_Frequency,Hit,StdDev 
1687503615.1,286046994.5,N
1687503635.9,286046994.7,N
1687503655.7,286046994.8,N
1687503675.5,286046994.5,N
1687503695.4,286046994.8,N
1687503715.2,286046993.9,N
1687503735.0,286046994.3,N
1687503736.0,286046994.3,N
1687503755.8,286046994.6,N
1687503775.6,286046994.1,N
1687503795.5,286046993.9,N
1687503815.3,286046992.5,N
1687503835.1,286046992.3,N
1687503855.9,286046992.8,N
1687503875.7,286046992.4,Y
1687503895.6,286046997.7,P
1687503915.4,286046997.8,N
1687503935.2,286046995.3,P
1687503955.1,286046995.4,Y
1687503956.0,286046995.4,P
1687503975.8,286046998.7,N
1687503995.7,286046998.6,N
1687504015.5,286046999.3,N
1687504035.3,286046998.6,N
1687504055.2,286046999.2,N
1687504075.0,286046999.3,N
1687504075.9,286046999.3,N
1687504095.7,286046998.4,N
1687504115.6,286046999.0,N
1687504135.4,286046996.5,N
1687504155.3,286046999.4,N
1687504175.1,286046997.3,N
1687504176.0,286046997.3,N
1687504195.8,286046997.7,N
1687504215.7,286046997.8,N
1687504235.5,286046997.4,N
1687504255.3,286046997.2,N
1687504275.2,286046997.2,N
1687504295.0,286046997.4,N
1687504295.9,286046997.4,N
1687504315.8,286046997.4,N
1687504335.6,286046997.7,N
1687504355.4,286046997.8,N
1687504375.3,286046997.5,N
1687504395.1,286046997.7,N
1687504415.9,286046995.0,Y
1687504435.7,286046996.9,P
1687504455.5,286046996.9,P
1687504475.4,286046998.0,P
1687504495.2,286046997.4,Y
1687504515.0,286047000.0,P
1687504515.9,286047000.0,N
1687504535.8,286046998.2,N
1687504555.6,286046998.8,N
1687504575.5,286046998.8,N
1687504595.3,286046999.5,N
1687504615.1,286046996.6,Y
1687504635.9,286046998.9,P
1687504655.7,286047001.1,P
1687504675.5,286047001.2,N
1687504695.4,286046998.2,N
1687504715.2,286046998.6,N
1687504735.1,286047000.9,N
1687504736.0,286047000.9,N
1687504755.8,286046998.1,N
1687504775.6,286047001.1,N
1687504795.5,286046998.2,N
1687504815.3,286047001.2,N
1687504835.1,286047002.5,N
1687504855.9,286047005.8,Y
1687504875.7,286047014.7,P
1687504895.6,286047020.1,N
1687504915.4,286047028.8,P
1687504935.2,286047026.5,N
1687504955.1,286047020.5,N
1687504956.0,286047020.5,N
1687504975.8,286047020.4,N
1687504995.7,286047016.3,N
1687505015.5,286047012.9,N
1687505035.3,286047011.5,N
1687505055.2,286047012.0,N
1687505075.0,286047010.7,N
1687505075.9,286047010.7,N
1687505095.7,286047010.7,N
1687505115.6,286047009.2,N
1687505135.4,286047006.4,N
1687505155.3,286047005.0,N
1687505175.1,286047005.8,N
1687505176.0,286047005.8,N
1687505195.8,286047005.5,N
1687505215.7,286047003.9,N
1687505235.5,286047001.3,N
1687505255.3,286047003.5,N
1687505275.2,286047003.8,N
1687505295.0,286047001.4,N
1687505295.9,286047001.4,N
1687505315.8,286047001.4,N
1687505335.6,286047001.4,N
1687505355.4,286047001.6,N
1687505375.3,286047002.4,N
1687505395.1,286047000.1,N
1687505415.9,286047000.4,N
1687505435.7,286047000.6,N
1687505455.5,286047000.8,N
1687505475.4,286046998.1,N
1687505495.2,286046998.5,N
1687505515.1,286047001.1,N
1687505516.0,286047001.1,N
1687505535.8,286046998.4,N
1687505555.6,286046998.5,N
1687505575.5,286046998.2,N
1687505595.3,286046999.3,N
1687505615.1,286046997.6,N
1687505635.9,286046995.6,N
1687505655.7,286046995.7,N
1687505675.6,286046996.4,N
1687505695.4,286046996.0,N
1687505715.2,286046993.5,N
1687505735.1,286046994.4,N
1687505736.0,286046994.4,N
1687505755.8,286046994.4,N
1687505775.6,286046994.0,N
1687505795.5,286046994.3,N
1687505815.3,286046994.0,N
1687505835.2,286046994.0,N
1687505855.0,286046994.0,N
1687505855.9,286046994.0,N
1687505875.8,286046994.6,N
1687505895.6,286046992.4,N
1687505915.4,286046991.7,N
1687505935.3,286046991.9,N
1687505955.1,286046994.5,N
1687505975.8,286046993.5,N
1687505995.7,286046993.4,N
1687506015.5,286046996.4,N
1687506035.4,286046996.4,N
1687506055.2,286046995.5,N
1687506075.0,286046993.6,N
1687506075.9,286046993.6,Y
1687506095.8,286046998.2,P
1687506115.6,286046997.0,N
1687506135.5,286046999.3,N
1687506155.3,286046999.4,N
1687506175.1,286046998.7,N
1687506195.9,286046998.7,N
1687506215.7,286046998.9,N
1687506235.6,286046998.8,N
1687506255.4,286046998.8,N
1687506275.2,286047000.7,N
1687506295.1,286047000.9,N
1687506296.0,286047000.9,N
1687506315.8,286047001.0,N
1687506335.6,286047000.6,N
1687506355.5,286046999.8,N
1687506375.3,286047000.4,N
1687506395.2,286047000.4,N
1687506415.9,286047000.9,N
1687506435.7,286047000.5,N
1687506455.6,286047000.2,N
1687506475.4,286047002.8,N
1687506495.2,286047002.7,N
1687506515.1,286047002.6,N
1687506516.0,286047002.6,N
1687506535.8,286047004.3,N
1687506555.7,286047004.3,N
1687506575.5,286047003.1,N
1687506625.4,286047003.2,E
1687506635.3,286047001.6,N
1687506655.1,286047000.4,P
1687506675.9,286046999.7,N
1687506695.7,286046999.7,N
1687506715.5,286047002.8,Y
1687506735.4,286047000.0,P
1687506755.2,286046999.8,N
1687506775.1,286046999.8,N
1687506776.0,286046999.8,N
1687506795.8,286046999.9,N
1687506815.6,286046999.9,N
1687506835.4,286047002.8,Y
1687506855.2,286046999.7,P
1687506875.1,286047000.6,P
1687506876.0,286047000.6,N
1687506895.8,286047000.3,N
1687506915.7,286047000.0,N
1687506935.5,286047000.6,N
1687506955.4,286047000.1,N
1687506975.2,286047002.7,Y
1687506995.0,286047002.8,P
1687506995.9,286047002.8,N
1687507015.8,286047000.5,N
1687507035.6,286046999.8,N
1687507055.5,286047000.5,N
1687507075.3,286046999.8,N
1687507095.1,286046999.9,N
1687507115.9,286047002.6,N
1687507135.7,286047002.7,N
1687507155.5,286047002.2,N
1687507175.4,286047002.8,N
1687507195.2,286047002.3,N
